Location: Lombard
(41.8800°N, 88.0080°W)
Time: 17:27:04
(UTC-06:00)

Vanguard 3 - Pass Details

Date: 16 December 2023
Orbit: 508 x 3239 km, 33.4° (Epoch: 23 February)

Event Time Altitude Azimuth Distance (km) Brightness Sun altitude
Rises 18:03:30 0° 238° (WSW) 7,100 13.4 -18.1°
Reaches altitude 10° 18:08:21 10° 234° (SW) 6,157 12.6 -19.0°
Maximum altitude 18:27:09 55° 164° (SSE) 3,317 10.1 -22.4°
Enters shadow 18:36:08 28° 104° (ESE) 3,807 10.0 -24.1°
